Regional Weather Roundup
Issued by NWS

Home | Current Version | Previous Version | Text Only | Print | Product List | Glossary On
Versions: 1 2 3 4 5 6 7 8 9 10 11 12 13 14 15 16 17 18 19 20 21 22 23 24 25 26 27 28 29 30 31 32 33 34 35 36 37 38 39 40 41 42 43 44 45 46 47 48 49 50
000
ASUS43 KIND 300709
RWRIN

WEATHER ROUNDUP FOR INDIANA
NATIONAL WEATHER SERVICE INDIANAPOLIS IN
300 AM EDT THU MAR 30 2017

NOTE: "FAIR" INDICATES FEW OR NO CLOUDS BELOW 12,000 FEET WITH NO
SIGNIFICANT WEATHER AND/OR OBSTRUCTIONS TO VISIBILITY.

* - STATION DOES NOT REPORT WEATHER SUCH AS PRECIPITATION OR FOG.

+ - STATION NOT QUALITY CONTROLLED BY THE NATIONAL WEATHER SERVICE.
    USE DATA WITH CAUTION...ESPECIALLY DEWPOINT AND RELATIVE
    HUMIDITY OBSERVATIONS.

INZ001>003-010>013-019-020-300800-
NORTHWEST INDIANA

CITY           SKY/WX    TMP DP  RH WIND       PRES   REMARKS
GARY /AIRPORT/ TSTM      43  40  86 NE10      29.94F
KNOX *+        CLOUDY    46  18  31 E22G28    29.91F
LA PORTE +     DRIZZLE   46  36  69 E21G28    29.93F
MICHIGAN CITY+ RAIN      45  36  70 E9G16     29.95F
MONTICELLO +   CLOUDY    45  37  73 E16G26    29.87F
RENSSELAER +   CLOUDY    45  41  87 E21G28    29.86F
VALPARAISO     CLOUDY    46  39  76 E18G26    29.92F THUNDER

$$

LMZ046-743>745-300800-
SOUTHERN LAKE MICHIGAN

STATION/POSITION TIME  TEMP    WIND        PRES    WAVE
                       AIR SEA DIR/SP/G            HT
                 (UTC) (F)     (DEG/KT/KT) (MB)    (FT)
BURNS HARBOR     0603   48      90/ 15     1014.2
MICHIGAN CITY    0640   47      70/ 19/ 23   N/A

$$

INZ004-005-014>016-021>024-300800-
NORTH CENTRAL INDIANA

CITY           SKY/WX    TMP DP  RH WIND       PRES   REMARKS
GOSHEN         CLOUDY    45  33  63 E21       30.00F
LOGANSPORT +   CLOUDY    43  37  81 E21G28    29.91F
PERU/GRISSOM   LGT RAIN  45  37  76 E20G26    29.90F
ROCHESTER +    CLOUDY    48  37  66 E20       29.93F
SOUTH BEND     CLOUDY    45  34  65 E18G25    29.95F
WARSAW +       CLOUDY    45  34  65 E17G25    29.97F

$$

INZ006>009-017-018-025>027-300800-
NORTHEAST INDIANA

CITY           SKY/WX    TMP DP  RH WIND       PRES   REMARKS
ANGOLA *+      CLOUDY    43  34  70 E17       30.04F
AUBURN +       CLOUDY    43  34  70 E15       30.04F
FORT WAYNE     CLOUDY    44  37  76 E22G29    30.00F
HUNTINGTON +   CLOUDY    42  38  83 E14G23    29.98F
KENDALLVILLE + CLOUDY    42  35  74 E13G20    30.03F

$$

INZ028-029-035-036-043>045-051>053-300800-
WEST CENTRAL INDIANA

CITY           SKY/WX    TMP DP  RH WIND       PRES   REMARKS
CRAWFORDSVL +  CLOUDY    51  44  76 E14       29.84F
GREENCASTLE +  PTCLDY    52  43  71 E9        29.84F
LAFAYETTE      CLOUDY    47  42  83 E17       29.85F
TERRE HAUTE    PTCLDY    55  46  71 SE12      29.80F

$$

INZ030>032-037>040-046>048-054>057-064-065-300800-
CENTRAL INDIANA

CITY           SKY/WX    TMP DP  RH WIND       PRES   REMARKS
CP ATTERBURY + PTCLDY    54  43  66 SE8       29.89F
FISHERS *+     CLOUDY    50  46  87 E6        29.89F
FRANKFORT +    CLOUDY    49  43  81 E22G29    29.88F
GREENWOOD *+   MOCLDY    55  43  66 SE9G16    29.89F
INDIANAPOLIS   CLOUDY    55  42  61 E15G24    29.87F
-EAGLE CREEK   LGT RAIN  55  42  61 E13G21    29.88F
KOKOMO +       LGT RAIN  45  38  76 E16G25    29.92F
MARION +       CLOUDY    45  36  72 E21       29.94F
MT COMFORT *+  CLOUDY    52  43  71 E12       29.90F
SHELBYVILLE    CLOUDY    55  42  61 SE12      29.88F
ZIONSVILLE +   LGT RAIN  48  43  83 E14G21    29.89F

$$

INZ033-034-041-042-049-050-058-059-300800-
EAST CENTRAL INDIANA

CITY           SKY/WX    TMP DP  RH WIND       PRES   REMARKS
MUNCIE         CLOUDY    49  39  68 E15       29.95F
RICHMOND +     CLOUDY    46  41  81 E10       29.95F

$$

INZ060-061-067>069-081>083-085>088-300800-
SOUTHWEST INDIANA

CITY           SKY/WX    TMP DP  RH WIND       PRES   REMARKS
EVANSVILLE     CLOUDY    61  51  70 E8        29.80F
HUNTINGBURG *+ MOCLDY    58  50  75 SE9       29.83F
WASHINGTON +   MOCLDY    56  47  71 MISG      29.81F

$$

INZ062-063-066-070>080-084-089>092-300800-
SOUTH CENTRAL AND SOUTHEAST INDIANA

CITY           SKY/WX    TMP DP  RH WIND       PRES   REMARKS
BEDFORD +      CLOUDY    54  45  71 E10       29.85F
BLOOMINGTON    PTCLDY    55  45  68 SE14      29.83F
MADISON *+     CLOUDY    52  45  76 E12G17    29.92F
NORTH VERNON + CLOUDY    55  45  67 E14G20    29.91F
SEYMOUR +      MOCLDY    55  45  67 SE13      29.88F

$$





USA.gov is the U.S. government's official web portal to all federal, state and local government web resources and services.